SFR321 FALE-FALA

Flight info

Callsign SFR321
Flight time 0h 54m
Altitude 36000
Route GEPOM UZ29 UNPOM DCT LIV
Aircraft B738/M-SDE2E3FGHIRWXY/LB1

Departure

Time 2026-05-07 15:08
Airport King Shaka International Airport (FALE)

Arrival

Time 2026-05-07 16:03
Airport Lanseria International Airport (FALA)
Time Latitude Longitude Altitude Speed Heading
2026-05-07 14:55 -29.61873 31.10658 279 ft 0 kts 308°
2026-05-07 15:01 -29.61873 31.10659 279 ft 1 kts 308°
2026-05-07 15:01 -29.61887 31.10680 279 ft 4 kts 296°
2026-05-07 15:02 -29.61894 31.10709 279 ft 4 kts 266°
2026-05-07 15:02 -29.61887 31.10732 283 ft 2 kts 219°
2026-05-07 15:02 -29.61886 31.10733 283 ft 1 kts 219°
2026-05-07 15:04 -29.61897 31.10723 279 ft 4 kts 218°
2026-05-07 15:05 -29.61939 31.10685 279 ft 11 kts 217°
2026-05-07 15:05 -29.62007 31.10626 279 ft 13 kts 218°
2026-05-07 15:05 -29.62081 31.10561 279 ft 13 kts 217°
2026-05-07 15:05 -29.62152 31.10499 279 ft 12 kts 217°
2026-05-07 15:06 -29.62216 31.10443 279 ft 10 kts 217°
2026-05-07 15:06 -29.62277 31.10453 283 ft 11 kts 128°
2026-05-07 15:06 -29.62330 31.10533 279 ft 14 kts 127°
2026-05-07 15:06 -29.62390 31.10623 279 ft 12 kts 128°
2026-05-07 15:07 -29.62442 31.10701 279 ft 12 kts 127°
2026-05-07 15:07 -29.62479 31.10764 280 ft 6 kts 111°
2026-05-07 15:07 -29.62476 31.10795 280 ft 3 kts 57°
2026-05-07 15:07 -29.62457 31.10815 281 ft 6 kts 38°
2026-05-07 15:08 -29.62281 31.10969 282 ft 70 kts 37°
2026-05-07 15:08 -29.61694 31.11480 280 ft 142 kts 37°
2026-05-07 15:08 -29.60780 31.12266 610 ft 174 kts 38°
2026-05-07 15:08 -29.59804 31.13105 1471 ft 175 kts 39°
2026-05-07 15:09 -29.58784 31.13874 2312 ft 184 kts 25°
2026-05-07 15:09 -29.57406 31.14102 2642 ft 218 kts 354°
2026-05-07 15:09 -29.55913 31.13552 3070 ft 236 kts 333°
2026-05-07 15:09 -29.54509 31.12451 3549 ft 251 kts 322°
2026-05-07 15:10 -29.53066 31.11181 3989 ft 275 kts 321°
2026-05-07 15:10 -29.51495 31.09777 4550 ft 292 kts 320°
2026-05-07 15:10 -29.49943 31.08382 5752 ft 280 kts 320°
2026-05-07 15:10 -29.48423 31.07026 6865 ft 276 kts 319°
2026-05-07 15:11 -29.46897 31.05666 7670 ft 281 kts 320°
2026-05-07 15:11 -29.45350 31.04286 8567 ft 282 kts 320°
2026-05-07 15:11 -29.43801 31.02904 9489 ft 282 kts 320°
2026-05-07 15:11 -29.42242 31.01514 10270 ft 288 kts 320°
2026-05-07 15:12 -29.40598 31.00045 10484 ft 313 kts 320°
2026-05-07 15:12 -29.38814 30.98450 10712 ft 336 kts 321°
2026-05-07 15:12 -29.36963 30.96799 11268 ft 345 kts 321°
2026-05-07 15:12 -29.35064 30.95109 12107 ft 346 kts 321°
2026-05-07 15:13 -29.33163 30.93418 12928 ft 347 kts 321°
2026-05-07 15:13 -29.31243 30.91711 13673 ft 351 kts 321°
2026-05-07 15:13 -29.29306 30.89989 14392 ft 354 kts 320°
2026-05-07 15:13 -29.27358 30.88257 15075 ft 357 kts 320°
2026-05-07 15:14 -29.25375 30.86493 15632 ft 363 kts 320°
2026-05-07 15:14 -29.23378 30.84726 16345 ft 364 kts 320°
2026-05-07 15:14 -29.21370 30.82947 16997 ft 367 kts 319°
2026-05-07 15:14 -29.19347 30.81148 17678 ft 369 kts 319°
2026-05-07 15:15 -29.17340 30.79365 18334 ft 370 kts 319°
2026-05-07 15:15 -29.15305 30.77560 18967 ft 371 kts 319°
2026-05-07 15:15 -29.13262 30.75751 19579 ft 372 kts 319°
2026-05-07 15:15 -29.11216 30.73939 20185 ft 373 kts 319°
2026-05-07 15:16 -29.09163 30.72121 20824 ft 373 kts 319°
2026-05-07 15:16 -29.07108 30.70302 21421 ft 374 kts 319°
2026-05-07 15:16 -29.05047 30.68479 22012 ft 375 kts 319°
2026-05-07 15:16 -29.03006 30.66675 22559 ft 377 kts 319°
2026-05-07 15:17 -29.00931 30.64842 23110 ft 378 kts 319°
2026-05-07 15:17 -28.98846 30.63001 23615 ft 379 kts 319°
2026-05-07 15:17 -28.96755 30.61156 24042 ft 381 kts 319°
2026-05-07 15:17 -28.94651 30.59299 24425 ft 384 kts 319°
2026-05-07 15:18 -28.92491 30.57485 24823 ft 387 kts 321°
2026-05-07 15:18 -28.90277 30.55735 25289 ft 387 kts 322°
2026-05-07 15:18 -28.88047 30.54008 25730 ft 388 kts 322°
2026-05-07 15:18 -28.85806 30.52278 26112 ft 389 kts 322°
2026-05-07 15:19 -28.83567 30.50547 26555 ft 389 kts 322°
2026-05-07 15:19 -28.81323 30.48804 26917 ft 391 kts 322°
2026-05-07 15:19 -28.79123 30.47088 27259 ft 393 kts 321°
2026-05-07 15:19 -28.76861 30.45319 27616 ft 395 kts 321°
2026-05-07 15:20 -28.74592 30.43544 27971 ft 397 kts 321°
2026-05-07 15:20 -28.72314 30.41761 28320 ft 398 kts 321°
2026-05-07 15:20 -28.70023 30.39966 28643 ft 400 kts 321°
2026-05-07 15:20 -28.67724 30.38165 28960 ft 403 kts 321°
2026-05-07 15:21 -28.65410 30.36356 29335 ft 403 kts 321°
2026-05-07 15:21 -28.63120 30.34569 30002 ft 396 kts 321°
2026-05-07 15:21 -28.60888 30.32832 30539 ft 391 kts 320°
2026-05-07 15:21 -28.58656 30.31081 30903 ft 390 kts 321°
2026-05-07 15:22 -28.56414 30.29335 31230 ft 391 kts 321°
2026-05-07 15:22 -28.54176 30.27594 31584 ft 389 kts 321°
2026-05-07 15:22 -28.51946 30.25856 32021 ft 387 kts 321°
2026-05-07 15:22 -28.49738 30.24135 32441 ft 384 kts 321°
2026-05-07 15:23 -28.47538 30.22420 32820 ft 383 kts 321°
2026-05-07 15:23 -28.45341 30.20710 33172 ft 382 kts 321°
2026-05-07 15:23 -28.43156 30.19009 33546 ft 379 kts 321°
2026-05-07 15:23 -28.41026 30.17354 34069 ft 373 kts 321°
2026-05-07 15:24 -28.38894 30.15699 34437 ft 370 kts 320°
2026-05-07 15:24 -28.36778 30.14054 34741 ft 368 kts 320°
2026-05-07 15:24 -28.34660 30.12410 35005 ft 368 kts 320°
2026-05-07 15:24 -28.32539 30.10762 35125 ft 373 kts 320°
2026-05-07 15:25 -28.28210 30.07397 35296 ft 380 kts 320°
2026-05-07 15:25 -28.26021 30.05700 35493 ft 381 kts 320°
2026-05-07 15:25 -28.23841 30.04012 35764 ft 379 kts 320°
2026-05-07 15:26 -28.21691 30.02349 35933 ft 379 kts 321°
2026-05-07 15:26 -28.19508 30.00665 35954 ft 380 kts 320°
2026-05-07 15:26 -28.15156 29.97299 35962 ft 377 kts 320°
2026-05-07 15:27 -28.10842 29.93968 35975 ft 374 kts 320°
2026-05-07 15:27 -28.06542 29.90649 35983 ft 373 kts 320°
2026-05-07 15:28 -28.02283 29.87365 35988 ft 373 kts 320°
2026-05-07 15:28 -27.98002 29.84068 35989 ft 372 kts 320°
2026-05-07 15:29 -27.93723 29.80774 36016 ft 373 kts 320°
2026-05-07 15:29 -27.89429 29.77473 36023 ft 373 kts 320°
2026-05-07 15:30 -27.85129 29.74171 36024 ft 374 kts 320°
2026-05-07 15:30 -27.80855 29.70892 36043 ft 373 kts 320°
2026-05-07 15:31 -27.76561 29.67601 36052 ft 374 kts 320°
2026-05-07 15:31 -27.72245 29.64296 36061 ft 375 kts 320°
2026-05-07 15:32 -27.67915 29.60984 36060 ft 377 kts 320°
2026-05-07 15:32 -27.63569 29.57662 36070 ft 378 kts 320°
2026-05-07 15:33 -27.59241 29.54359 36074 ft 378 kts 320°
2026-05-07 15:33 -27.54878 29.51034 36084 ft 379 kts 320°
2026-05-07 15:34 -27.50494 29.47693 36081 ft 381 kts 320°
2026-05-07 15:34 -27.46109 29.44354 36107 ft 381 kts 320°
2026-05-07 15:35 -27.41734 29.41027 36107 ft 382 kts 320°
2026-05-07 15:35 -27.37541 29.37432 36103 ft 376 kts 313°
2026-05-07 15:36 -27.33723 29.33406 36081 ft 375 kts 312°
2026-05-07 15:36 -27.29919 29.29408 36097 ft 374 kts 313°
2026-05-07 15:37 -27.26101 29.25424 36097 ft 374 kts 313°
2026-05-07 15:37 -27.22305 29.21479 36115 ft 375 kts 313°
2026-05-07 15:38 -27.18474 29.17505 36119 ft 375 kts 313°
2026-05-07 15:38 -27.14639 29.13531 36115 ft 375 kts 313°
2026-05-07 15:39 -27.10798 29.09556 36118 ft 375 kts 313°
2026-05-07 15:39 -27.06962 29.05589 36123 ft 376 kts 313°
2026-05-07 15:40 -27.03146 29.01648 36126 ft 376 kts 313°
2026-05-07 15:40 -26.99293 28.97671 36095 ft 377 kts 313°
2026-05-07 15:41 -26.97345 28.95660 35657 ft 382 kts 313°
2026-05-07 15:41 -26.95392 28.93646 35061 ft 382 kts 313°
2026-05-07 15:41 -26.93437 28.91633 34500 ft 382 kts 313°
2026-05-07 15:41 -26.91477 28.89615 33801 ft 383 kts 313°
2026-05-07 15:42 -26.89541 28.87622 33148 ft 384 kts 313°
2026-05-07 15:42 -26.87572 28.85597 32491 ft 384 kts 313°
2026-05-07 15:42 -26.85607 28.83577 31838 ft 384 kts 313°
2026-05-07 15:42 -26.83631 28.81546 31175 ft 385 kts 313°
2026-05-07 15:43 -26.81677 28.79541 30687 ft 382 kts 313°
2026-05-07 15:43 -26.79755 28.77569 30212 ft 380 kts 313°
2026-05-07 15:43 -26.77814 28.75579 29656 ft 376 kts 313°
2026-05-07 15:43 -26.75894 28.73611 29131 ft 372 kts 313°
2026-05-07 15:44 -26.73999 28.71670 28641 ft 368 kts 313°
2026-05-07 15:44 -26.72121 28.69746 28158 ft 364 kts 313°
2026-05-07 15:44 -26.70267 28.67848 27684 ft 360 kts 313°
2026-05-07 15:44 -26.68454 28.65992 27256 ft 355 kts 312°
2026-05-07 15:45 -26.66638 28.64134 26773 ft 353 kts 312°
2026-05-07 15:45 -26.64832 28.62285 26319 ft 351 kts 312°
2026-05-07 15:45 -26.63038 28.60449 25866 ft 350 kts 312°
2026-05-07 15:45 -26.61242 28.58613 25405 ft 349 kts 312°
2026-05-07 15:46 -26.57578 28.54861 24452 ft 368 kts 313°
2026-05-07 15:46 -26.55694 28.52936 23978 ft 367 kts 313°
2026-05-07 15:46 -26.53810 28.51016 23443 ft 365 kts 313°
2026-05-07 15:47 -26.51965 28.49139 22932 ft 362 kts 313°
2026-05-07 15:47 -26.50112 28.47253 22442 ft 359 kts 313°
2026-05-07 15:47 -26.48273 28.45382 21945 ft 356 kts 313°
2026-05-07 15:47 -26.46454 28.43530 21493 ft 353 kts 313°
2026-05-07 15:48 -26.44650 28.41696 21046 ft 349 kts 313°
2026-05-07 15:48 -26.42871 28.39886 20603 ft 346 kts 313°
2026-05-07 15:48 -26.41086 28.38071 20168 ft 344 kts 313°
2026-05-07 15:48 -26.39323 28.36278 19723 ft 342 kts 312°
2026-05-07 15:49 -26.37570 28.34497 19286 ft 340 kts 312°
2026-05-07 15:49 -26.35821 28.32720 18838 ft 339 kts 312°
2026-05-07 15:49 -26.34105 28.30978 18403 ft 338 kts 312°
2026-05-07 15:49 -26.32372 28.29218 17909 ft 337 kts 313°
2026-05-07 15:50 -26.30647 28.27469 17454 ft 334 kts 313°
2026-05-07 15:50 -26.28934 28.25732 17036 ft 332 kts 313°
2026-05-07 15:50 -26.27240 28.24016 16613 ft 329 kts 313°
2026-05-07 15:50 -26.25551 28.22304 16165 ft 328 kts 313°
2026-05-07 15:51 -26.24435 28.21174 15897 ft 326 kts 313°
2026-05-07 15:51 -26.22197 28.18909 15340 ft 324 kts 313°
2026-05-07 15:51 -26.20539 28.17231 14939 ft 322 kts 313°
2026-05-07 15:51 -26.18885 28.15557 14529 ft 320 kts 313°
2026-05-07 15:52 -26.17258 28.13912 14145 ft 319 kts 313°
2026-05-07 15:52 -26.15615 28.12250 13683 ft 319 kts 313°
2026-05-07 15:52 -26.13978 28.10597 13253 ft 317 kts 313°
2026-05-07 15:52 -26.12348 28.08951 12839 ft 316 kts 313°
2026-05-07 15:53 -26.10727 28.07315 12437 ft 314 kts 313°
2026-05-07 15:53 -26.09655 28.06233 12179 ft 313 kts 313°
2026-05-07 15:53 -26.07507 28.04066 11652 ft 311 kts 313°
2026-05-07 15:53 -26.05904 28.02449 11268 ft 311 kts 313°
2026-05-07 15:54 -26.04846 28.01382 11016 ft 310 kts 313°
2026-05-07 15:54 -26.02757 27.99279 10786 ft 300 kts 313°
2026-05-07 15:54 -26.01227 27.97738 10651 ft 295 kts 313°
2026-05-07 15:54 -25.99710 27.96209 10400 ft 292 kts 313°
2026-05-07 15:55 -25.98235 27.94725 10139 ft 281 kts 313°
2026-05-07 15:55 -25.97287 27.93773 9965 ft 274 kts 313°
2026-05-07 15:55 -25.95899 27.92380 9673 ft 264 kts 313°
2026-05-07 15:55 -25.94561 27.91024 9427 ft 257 kts 311°
2026-05-07 15:56 -25.93286 27.89645 9219 ft 254 kts 310°
2026-05-07 15:56 -25.91655 27.87859 9160 ft 245 kts 310°
2026-05-07 15:56 -25.90447 27.86540 9158 ft 243 kts 310°
2026-05-07 15:56 -25.89581 27.85736 9143 ft 249 kts 325°
2026-05-07 15:57 -25.87871 27.85273 9171 ft 264 kts 359°
2026-05-07 15:57 -25.86088 27.85923 8851 ft 283 kts 36°
2026-05-07 15:57 -25.84715 27.87458 8516 ft 278 kts 48°
2026-05-07 15:57 -25.83457 27.89046 8172 ft 268 kts 48°
2026-05-07 15:58 -25.82250 27.90553 7917 ft 256 kts 49°
2026-05-07 15:58 -25.81319 27.92180 7625 ft 244 kts 71°
2026-05-07 15:58 -25.81018 27.93947 7383 ft 226 kts 95°
2026-05-07 15:58 -25.81259 27.95581 7147 ft 205 kts 112°
2026-05-07 15:59 -25.81832 27.96955 6955 ft 190 kts 128°
2026-05-07 15:59 -25.82616 27.98046 6800 ft 173 kts 142°
2026-05-07 15:59 -25.83544 27.98829 6617 ft 162 kts 156°
2026-05-07 15:59 -25.84534 27.99325 6448 ft 157 kts 167°
2026-05-07 16:00 -25.85584 27.99569 6302 ft 153 kts 178°
2026-05-07 16:00 -25.86651 27.99604 6083 ft 153 kts 187°
2026-05-07 16:00 -25.87669 27.99328 5972 ft 149 kts 201°
2026-05-07 16:00 -25.88644 27.98896 5785 ft 152 kts 208°
2026-05-07 16:01 -25.89413 27.98129 5615 ft 151 kts 232°
2026-05-07 16:01 -25.90089 27.97230 5368 ft 152 kts 224°
2026-05-07 16:01 -25.90819 27.96371 5122 ft 156 kts 226°
2026-05-07 16:01 -25.91538 27.95493 4946 ft 155 kts 225°
2026-05-07 16:02 -25.92271 27.94610 4761 ft 159 kts 227°
2026-05-07 16:02 -25.93022 27.93716 4572 ft 156 kts 226°
2026-05-07 16:02 -25.93718 27.92880 4516 ft 133 kts 227°
2026-05-07 16:02 -25.94264 27.92224 4517 ft 98 kts 227°
2026-05-07 16:03 -25.94600 27.91819 4517 ft 46 kts 227°
2026-05-07 16:03 -25.94766 27.91620 4518 ft 24 kts 227°
2026-05-07 16:03 -25.94786 27.91524 4518 ft 13 kts 306°
2026-05-07 16:03 -25.94726 27.91456 4522 ft 10 kts 316°
2026-05-07 16:04 -25.94667 27.91460 4522 ft 10 kts 45°
2026-05-07 16:04 -25.94612 27.91525 4522 ft 13 kts 47°
2026-05-07 16:04 -25.94535 27.91618 4522 ft 19 kts 47°
2026-05-07 16:04 -25.94434 27.91740 4522 ft 23 kts 47°
2026-05-07 16:05 -25.94316 27.91882 4522 ft 26 kts 47°
2026-05-07 16:05 -25.94201 27.92020 4522 ft 23 kts 47°
2026-05-07 16:05 -25.94093 27.92149 4522 ft 22 kts 47°
2026-05-07 16:05 -25.93993 27.92270 4522 ft 18 kts 47°
2026-05-07 16:06 -25.93918 27.92360 4521 ft 15 kts 47°
2026-05-07 16:06 -25.93849 27.92442 4522 ft 13 kts 45°
2026-05-07 16:06 -25.93778 27.92494 4522 ft 11 kts 20°
2026-05-07 16:06 -25.93713 27.92516 4522 ft 9 kts 43°
2026-05-07 16:07 -25.93673 27.92563 4522 ft 7 kts 47°
2026-05-07 16:07 -25.93641 27.92567 4522 ft 4 kts 320°
2026-05-07 16:07 -25.93625 27.92550 4521 ft 2 kts 317°
2026-05-07 16:07 -25.93614 27.92539 4523 ft 1 kts 317°
2026-05-07 16:08 -25.93613 27.92537 4523 ft 0 kts 317°
2026-05-07 16:08 -25.93613 27.92538 4523 ft 0 kts 317°